Kansas Department of Transportation
RWIS(Road and Runway Information System) Map and Weather Data





Station
Surface
Air
Wind
Site IDSensor TypeLocationTemperature (°F)Temperature (°F)Humidity (%)Speed (mi/h)Gusts (mi/h)DirectionTime
123014AtmosphericBull Creek 795924WSWMay 26 2017 11:35AM
123014DeckBull Creek106     May 26 2017 11:35AM
123014DepartureBull Creek104     May 26 2017 11:35AM
123015AtmosphericLeavenworth 756726NNEMay 26 2017 11:35AM
123015DeckLeavenworth106     May 26 2017 11:35AM
123015DepartureLeavenworth108     May 26 2017 11:35AM
123020AtmosphericMayetta 775446NMay 26 2017 11:35AM
123020RoadwayMayetta108     May 26 2017 11:35AM
123020DeckMayetta118     May 26 2017 11:35AM
505000AtmosphericKTA 1 7953610NMay 26 2017 11:20AM
505000ApproachKTA 1102     May 26 2017 11:30AM
505000DeckKTA 1104     May 26 2017 11:30AM
505001AtmosphericKTA 2 796169NMay 26 2017 11:20AM
505001ApproachKTA 2102     May 26 2017 11:30AM
505001DeckKTA 2102     May 26 2017 11:30AM
505002AtmosphericKTA 3 7571411NMay 26 2017 11:20AM
505002ApproachKTA 3106     May 26 2017 11:30AM
505002DeckKTA 3104     May 26 2017 11:30AM
505003AtmosphericKTA 4 7761714NMay 26 2017 11:20AM
505003ApproachKTA 4108     May 26 2017 11:30AM
505003DeckKTA 4102     May 26 2017 11:30AM
505004AtmosphericKTA 5 7599711NMay 26 2017 11:20AM
505004RoadwayKTA 5Unavailable     May 26 2017 11:30AM
505004RoadwayKTA 5Unavailable     May 26 2017 11:30AM
505005AtmosphericKTA 6 7761610WNWMay 26 2017 11:20AM
505005Approach KTA 6106     May 26 2017 11:30AM
505005DeckKTA 6100     May 26 2017 11:30AM
505006AtmosphericKTA 7 776747NWMay 26 2017 11:20AM
505006ApproachKTA 7Unavailable     May 26 2017 11:30AM
505006DeckKTA 7104     May 26 2017 11:30AM
505007AtmosphericKTA 8 757347NWMay 26 2017 11:20AM
505007ApproachKTA 8106     May 26 2017 11:30AM
505007DeckKTA 8102     May 26 2017 11:30AM
505008AtmosphericKTA 9 791026NNWMay 26 2017 11:20AM
505008ApproachKTA 9104     May 26 2017 11:30AM
505008DeckKTA 9104     May 26 2017 11:30AM
505009AtmosphericKTA 10 824226NMay 26 2017 11:20AM
505009ApproachKTA 10102     May 26 2017 11:30AM
505009DeckKTA 10102     May 26 2017 11:30AM
505010AtmosphericWebb 798059WMay 26 2017 11:35AM
505010DeckWebb104     May 26 2017 11:35AM
505010NullWebb109     May 26 2017 11:35AM
505014AtmosphericI-135 7762612NNWMay 26 2017 11:30AM
505014ApproachI-135102     May 26 2017 11:30AM
505014DeckI-135Unavailable     May 26 2017 11:30AM
540000AtmosphericBlue Rapids 7757711NNEMay 26 2017 11:35AM
540000DeckBlue Rapids102     May 26 2017 11:35AM
540000DepartureBlue Rapids106     May 26 2017 11:35AM
540001AtmosphericSabetha 7760410NNEMay 26 2017 11:35AM
540001ApproachSabetha111     May 26 2017 11:35AM
540001DeckSabetha109     May 26 2017 11:35AM
540002AtmosphericWestgate 815146NWMay 26 2017 11:35AM
540002DeckWestgate99     May 26 2017 11:35AM
540002DepartureWestgate100     May 26 2017 11:35AM
540005AtmosphericLawrence 756726WMay 26 2017 11:35AM
540005ApproachLawrence102     May 26 2017 11:35AM
540005DeckLawrence108     May 26 2017 11:35AM
540006AtmosphericTroy 797357NNEMay 26 2017 11:35AM
540006DeckTroy109     May 26 2017 11:35AM
540006DepartureTroy115     May 26 2017 11:35AM
540007AtmosphericManhattan 756914NMay 26 2017 11:35AM
540007DepartureManhattan106     May 26 2017 11:35AM
540007DeckManhattan109     May 26 2017 11:35AM
541001AtmosphericSyracuse 7342616NMay 26 2017 11:35AM
541001Out of Service for WinterSyracuse102     May 26 2017 11:35AM
541001DeckSyracuse95     May 26 2017 11:35AM
541002AtmosphericLiberal 7741714NNEMay 26 2017 11:35AM
541002ApproachLiberalUnavailable     May 26 2017 11:35AM
541002DeckLiberalUnavailable     May 26 2017 11:35AM
541003AtmosphericFord 7549711NMay 26 2017 11:35AM
541003DeckFord99     May 26 2017 11:35AM
541003DepartureFord106     May 26 2017 11:35AM
541004AtmosphericScott 6610811SEMay 26 2017 11:35AM
541004DepartureScott102     May 26 2017 11:35AM
541005AtmosphericNess 725000NMay 26 2017 11:35AM
541005DeckNess99     May 26 2017 11:35AM
541005DepartureNess104     May 26 2017 11:35AM
541007AtmosphericGarden City 72581116NNEMay 26 2017 11:35AM
541007ApproachGarden City86     May 26 2017 11:35AM
541007DeckGarden CityUnavailable     May 26 2017 11:35AM
543000AtmosphericJunction City 795814NNEMay 26 2017 11:15AM
543000ApproachJunction City102     May 26 2017 11:15AM
543000DeckJunction City104     May 26 2017 11:15AM
543001AtmosphericEllsworth 7246713SEMay 26 2017 11:35AM
543001RoadwayEllsworth104     May 26 2017 11:35AM
543002AtmosphericMcPherson 7567711NNEMay 26 2017 11:35AM
543002ApproachMcPherson100     May 26 2017 11:35AM
543003AtmosphericSalina 7539610NMay 26 2017 11:30AM
543003DepartureSalina      May 26 2017 11:35AM
543003RoadwaySalinaUnavailable     May 26 2017 11:35AM
543004AtmosphericConcordia 7263713NMay 26 2017 11:35AM
543004ApproachConcordiaUnavailable     May 26 2017 11:35AM
543004DeckConcordia97     May 26 2017 11:35AM
543005AtmosphericPeabody 7056712EMay 26 2017 11:35AM
543005ApproachPeabody111     May 26 2017 11:35AM
543005DeckPeabodyUnavailable     May 26 2017 11:35AM
560000AtmosphericEdson 634979ENEMay 26 2017 11:35AM
560000RoadwayEdson99     May 26 2017 11:35AM
560000RoadwayEdson91     May 26 2017 11:35AM
560001AtmosphericOakley 6461912NNEMay 26 2017 11:35AM
560001ApproachOakley99     May 26 2017 11:35AM
560001DeckOakley93     May 26 2017 11:35AM
560002AtmosphericAtwood 6356410NMay 26 2017 11:35AM
560002ApproachAtwood88     May 26 2017 11:35AM
560002DeckAtwood95     May 26 2017 11:35AM
560003AtmosphericJennings 664659NEMay 26 2017 11:35AM
560003ApproachJennings97     May 26 2017 11:35AM
560003DeckJennings97     May 26 2017 11:35AM
560004AtmosphericWakeeney 6644912NMay 26 2017 11:35AM
560004ApproachWakeeney95     May 26 2017 11:35AM
560004DeckWakeeney95     May 26 2017 11:35AM
560005AtmosphericWalker 6837711NNWMay 26 2017 11:35AM
560005ApproachWalker97     May 26 2017 11:35AM
560005DeckWalker100     May 26 2017 11:35AM
560006AtmosphericBow Creek(Stockton) 7034410NMay 26 2017 11:35AM
560006ApproachBow Creek(Stockton)106     May 26 2017 11:35AM
560006DeckBow Creek(Stockton)100     May 26 2017 11:35AM
560007AtmosphericLebanon 7049912NNEMay 26 2017 11:35AM
560007ApproachLebanon100     May 26 2017 11:35AM
560007DeckLebanonUnavailable     May 26 2017 11:35AM
560008AtmosphericWallace 663036NNEMay 26 2017 11:35AM
560008ApproachWallace108     May 26 2017 11:35AM
560008DeckWallace97     May 26 2017 11:35AM
572000AtmosphericGreat Bend 7369711NNEMay 26 2017 11:35AM
572000ApproachGreat Bend111     May 26 2017 11:35AM
572000DeckGreat Bend104     May 26 2017 11:35AM
572001AtmosphericPratt 771317NMay 26 2017 11:35AM
572001ApproachPratt111     May 26 2017 11:35AM
572001DeckPratt108     May 26 2017 11:35AM
572002AtmosphericAnthony 8153611NMay 26 2017 11:35AM
572002ApproachAnthony118     May 26 2017 11:35AM
572002DeckAnthony109     May 26 2017 11:35AM
573001AtmosphericGarnett 757056NMay 26 2017 11:35AM
573001ApproachGarnett111     May 26 2017 11:35AM
573001DeckGarnett108     May 26 2017 11:35AM
573002AtmosphericCaney 825714WNWMay 26 2017 11:35AM
573002RoadwayCaney113     May 26 2017 11:35AM
573003AtmosphericChetopa 816526SSWMay 26 2017 11:35AM
573003DeckChetopa117     May 26 2017 11:35AM
573003DepartureChetopa117     May 26 2017 11:35AM
573004AtmosphericChanute 825825NNEMay 26 2017 11:35AM
573004ApproachChanute115     May 26 2017 11:35AM
573004DeckChanuteUnavailable     May 26 2017 11:35AM